[[{"header":{"parameterUnit":"m.s-1","parameterCategory":1,"la1":30.2991,"la2":30.254,"lo1":-89.0895,"lo2":-89.0444,"dy":0.0017,"dx":0.0017,"nx":28,"ny":28,"refTime":"2026-02-14T03:00:00:Z","depth":0,"parameterNumber":2,"parameterNumberName":"U-component_of_WINDS"},"data":[0,0,0,0,0,0,0,0,0,0,0,0,0,0,0,0,0,0,0,0,0,0,0,0,0,0,0,0,0,0,0,0,0,0,0,0,0,0,0,0,0,0,0,0,0,0,0,0,0,0,0,0,0,0,0,0,0,0,-0.3084,-0.3084,0,-0.3128,-0.3128,-0.3129,-0.3141,-0.3141,-0.314,-0.314,-0.3188,-0.319,-0.3191,0,0,0,0,0,0,0,0,0,0,0,0,0,-0.3013,-0.3014,-0.3084,-0.3084,-0.3085,-0.3128,-0.3128,-0.3129,-0.3141,-0.3141,-0.314,-0.314,-0.3188,-0.319,-0.3191,0,0,0,0,0,0,0,0,0,0,0,0,0,-0.3049,-0.3015,-0.3084,-0.3096,-0.3097,-0.3128,-0.3128,-0.3129,-0.3141,-0.3141,-0.314,-0.314,-0.3187,-0.3189,-0.3192,-0.3214,0,0,-0.3199,-0.32,0,0,0,0,0,0,0,0,-0.3047,-0.3052,-0.3093,-0.3095,-0.3097,-0.3128,-0.3121,-0.3158,-0.3141,-0.3124,-0.314,-0.314,-0.3169,-0.3173,-0.3182,-0.3216,-0.3218,-0.3199,-0.32,-0.3201,-0.3202,0,0,0,0,0,0,0,-0.3045,-0.305,-0.3101,-0.3094,-0.3096,-0.31,-0.3105,-0.3128,-0.3149,-0.3126,-0.3127,-0.3132,-0.317,-0.318,-0.3183,-0.3219,-0.3199,-0.3201,-0.3202,-0.3203,-0.3275,-0.3276,0,0,0,0,0,0,-0.304,-0.3048,-0.31,-0.3103,-0.307,-0.3102,-0.3107,-0.3119,-0.3148,-0.3152,-0.3132,-0.3132,-0.3176,-0.318,-0.3185,-0.3214,-0.3201,-0.3203,-0.3205,-0.3275,-0.3275,-0.3276,0,0,0,0,0,0,-0.3038,-0.3044,-0.3098,-0.3076,-0.3083,-0.3103,-0.3116,-0.312,-0.313,-0.3153,-0.3157,-0.3138,-0.3176,-0.3182,-0.3207,-0.3216,-0.3204,-0.3207,-0.3274,-0.3275,-0.3276,-0.3271,0,0,0,0,0,0,-0.3036,-0.3043,-0.3051,-0.3076,-0.3084,-0.3118,-0.3117,-0.3121,-0.3133,-0.3134,-0.316,-0.3164,-0.3176,-0.3203,-0.3209,-0.3219,-0.3208,-0.3273,-0.3274,-0.3275,-0.327,-0.3272,-0.3272,0,0,0,0,0,-0.3033,-0.3049,-0.3052,-0.3058,-0.3094,-0.3118,-0.3123,-0.3136,-0.3134,-0.3143,-0.3158,-0.3163,-0.3213,-0.3206,-0.3212,-0.3223,-0.3273,-0.3274,-0.3275,-0.327,-0.3271,-0.3272,0,0,0,0,0,0,-0.3026,-0.3052,-0.3056,-0.3079,-0.3096,-0.312,-0.3132,-0.3137,-0.3156,-0.3156,-0.3172,-0.3178,-0.3202,-0.3215,-0.3206,-0.3246,-0.3243,-0.3246,-0.3237,-0.3239,-0.324,-0.3236,-0.321,0,0,0,0,0,-0.3026,-0.3043,-0.3066,-0.3084,-0.3093,-0.3111,-0.3122,-0.313,-0.3149,-0.3157,-0.3174,-0.3193,-0.3214,-0.3227,-0.3247,-0.3272,-0.3279,-0.3283,-0.3284,-0.3284,-0.3287,-0.3303,-0.3305,-0.328,-0.328,-0.328,0,0,-0.3029,-0.3045,-0.3055,-0.3083,-0.3097,-0.3116,-0.3117,-0.3136,-0.315,-0.316,-0.3185,-0.3198,-0.3221,-0.3246,-0.3259,-0.3258,-0.3295,-0.3286,-0.3286,-0.3288,-0.3304,-0.3306,-0.3308,-0.3281,-0.328,-0.328,0,0,-0.3042,-0.3056,-0.3073,-0.3087,-0.3109,-0.3121,-0.3125,-0.3149,-0.3158,-0.3182,-0.3191,-0.3209,-0.3243,-0.3259,-0.3272,-0.3292,-0.3298,-0.3298,-0.3304,-0.3319,-0.3321,-0.3323,-0.3331,-0.3334,-0.33,-0.33,-0.33,0,-0.3043,-0.3069,-0.3081,-0.31,-0.3113,-0.3122,-0.3141,-0.3155,-0.3182,-0.3191,-0.319,-0.3234,-0.325,-0.328,-0.3285,-0.3294,-0.3301,-0.3296,-0.3319,-0.3321,-0.3323,-0.3332,-0.3335,-0.33,-0.33,-0.33,-0.33,0,-0.3069,-0.3088,-0.3099,-0.3125,-0.3139,-0.3157,-0.3173,-0.3186,-0.3194,-0.3206,-0.3232,-0.3252,-0.3276,-0.3284,-0.3292,-0.3316,-0.3315,-0.3316,-0.3313,-0.3326,-0.3334,-0.3337,-0.33,-0.33,-0.33,-0.33,0,0,-0.3079,-0.3111,-0.3115,-0.3127,-0.3152,-0.3167,-0.3187,-0.321,-0.3221,-0.324,-0.3258,-0.3287,-0.3289,-0.3303,-0.3313,-0.3326,-0.3343,-0.3326,-0.3327,-0.333,-0.3372,-0.3371,-0.3374,-0.3347,-0.3347,-0.3348,-0.337,0,-0.3096,-0.313,-0.3142,-0.3171,-0.3189,-0.3199,-0.3216,-0.3234,-0.3246,-0.3264,-0.3279,-0.3299,-0.3299,-0.3308,-0.3322,-0.3338,-0.3352,-0.3336,-0.3365,-0.3365,-0.3359,-0.3378,-0.3378,-0.3398,-0.3373,-0.3374,-0.3374,0,-0.3121,-0.3139,-0.3169,-0.3193,-0.3201,-0.3216,-0.3239,-0.3255,-0.3277,-0.3285,-0.3301,-0.331,-0.3332,-0.3328,-0.336,-0.3349,-0.3362,-0.3371,-0.3373,-0.3376,-0.3371,-0.3384,-0.3405,-0.3408,-0.3379,-0.3379,-0.3378,0,-0.3126,-0.3159,-0.3181,-0.3191,-0.3219,-0.3229,-0.3242,-0.3262,-0.3276,-0.3296,-0.3305,-0.3328,-0.3341,-0.3359,-0.3374,-0.337,-0.3405,-0.3402,-0.3414,-0.3414,-0.3422,-0.3421,-0.3446,-0.3428,-0.3428,-0.3428,-0.3428,0,-0.3145,-0.3163,-0.3184,-0.3198,-0.3219,-0.3234,-0.3255,-0.3268,-0.3286,-0.3304,-0.3314,-0.333,-0.3349,-0.3369,-0.3381,-0.3406,-0.3412,-0.342,-0.3424,-0.342,-0.3419,-0.3429,-0.3428,-0.3429,-0.3429,-0.3429,-0.3428,0,-0.3155,-0.3169,-0.3195,-0.3218,-0.3225,-0.324,-0.3261,-0.3276,-0.3288,-0.3311,-0.3317,-0.3338,-0.3361,-0.3378,-0.3409,-0.3417,-0.3445,-0.3447,-0.3437,-0.3439,-0.3451,-0.345,-0.3483,-0.3489,-0.3466,-0.3467,-0.3467,0,-0.3166,-0.318,-0.3206,-0.3218,-0.323,-0.3249,-0.3262,-0.3277,-0.3291,-0.3317,-0.3329,-0.3353,-0.3373,-0.3411,-0.3429,-0.3453,-0.3457,-0.3467,-0.3461,-0.3457,-0.3459,-0.3458,-0.346,-0.3468,-0.3469,-0.3469,-0.3469,0,-0.3185,-0.3192,-0.321,-0.3232,-0.3247,-0.3265,-0.3283,-0.3293,-0.3311,-0.3327,-0.3351,-0.3366,-0.3397,-0.3422,-0.3447,-0.3462,-0.3469,-0.347,-0.3475,-0.3472,-0.3466,-0.347,-0.3441,-0.347,-0.347,-0.347,-0.347,-0.347,-0.3197,-0.321,-0.323,-0.3251,-0.3266,-0.3283,-0.3298,-0.3312,-0.3332,-0.3358,-0.3366,-0.3391,-0.3413,-0.3448,-0.3462,-0.3483,-0.3483,-0.3489,-0.349,-0.3492,-0.3492,-0.3461,-0.3488,-0.3488,-0.3488,-0.3488,-0.3488,0,-0.3217,-0.323,-0.3249,-0.3274,-0.3291,-0.3294,-0.3315,-0.3329,-0.3351,-0.337,-0.3389,-0.3417,-0.3441,-0.3462,-0.3487,-0.3499,-0.3504,-0.3506,-0.3505,-0.3509,-0.3491,-0.3485,-0.3502,-0.3502,-0.3502,-0.3502,-0.3502,-0.3502,-0.323,-0.3253,-0.3262,-0.3293,-0.3307,-0.333,-0.3342,-0.3358,-0.3374,-0.3404,-0.3423,-0.3436,-0.3457,-0.3483,-0.3506,-0.3511,-0.3521,-0.3522,-0.3529,-0.3511,-0.351,-0.3508,-0.3503,-0.3524,-0.3524,-0.3545,-0.3546,-0.3546]},{"header":{"parameterUnit":"m.s-1","parameterCategory":1,"la1":30.2991,"la2":30.254,"lo1":-89.0895,"lo2":-89.0444,"dy":0.0017,"dx":0.0017,"nx":28,"ny":28,"refTime":"2026-02-14T03:00:00:Z","depth":0,"parameterNumber":3,"parameterNumberName":"V-component_of_WINDS"},"data":[0,0,0,0,0,0,0,0,0,0,0,0,0,0,0,0,0,0,0,0,0,0,0,0,0,0,0,0,0,0,0,0,0,0,0,0,0,0,0,0,0,0,0,0,0,0,0,0,0,0,0,0,0,0,0,0,0,0,1.3304,1.3304,0,1.3278,1.3278,1.3277,1.3269,1.3269,1.3269,1.3269,1.3241,1.324,1.3239,0,0,0,0,0,0,0,0,0,0,0,0,0,1.3345,1.3345,1.3304,1.3304,1.3303,1.3278,1.3278,1.3277,1.3269,1.3269,1.3269,1.3269,1.3241,1.324,1.3239,0,0,0,0,0,0,0,0,0,0,0,0,0,1.3324,1.3344,1.3304,1.3296,1.3295,1.3278,1.3278,1.3277,1.3269,1.3269,1.3269,1.3269,1.3242,1.324,1.3239,1.3228,0,0,1.3235,1.3235,0,0,0,0,0,0,0,0,1.3325,1.3323,1.3297,1.3296,1.3295,1.3277,1.3282,1.3261,1.3269,1.3279,1.3269,1.3269,1.3253,1.325,1.3245,1.3226,1.3225,1.3235,1.3234,1.3234,1.3233,0,0,0,0,0,0,0,1.3327,1.3324,1.3294,1.3297,1.3296,1.3294,1.3291,1.3278,1.3265,1.3278,1.3277,1.3274,1.3252,1.3246,1.3244,1.3225,1.3235,1.3234,1.3233,1.3233,1.3196,1.3196,0,0,0,0,0,0,1.333,1.3325,1.3294,1.3293,1.3311,1.3293,1.3289,1.3283,1.3265,1.3263,1.3274,1.3274,1.3249,1.3246,1.3243,1.3229,1.3234,1.3233,1.3232,1.3196,1.3196,1.3196,0,0,0,0,0,0,1.3331,1.3327,1.3295,1.3309,1.3305,1.3292,1.3284,1.3282,1.3276,1.3262,1.326,1.3271,1.3249,1.3245,1.3232,1.3228,1.3232,1.3231,1.3197,1.3196,1.3196,1.3201,0,0,0,0,0,0,1.3332,1.3328,1.3323,1.3309,1.3304,1.3285,1.3284,1.3281,1.3274,1.3274,1.3259,1.3256,1.3248,1.3234,1.3231,1.3227,1.323,1.3197,1.3197,1.3196,1.3201,1.3201,1.3201,0,0,0,0,0,1.3334,1.3325,1.3323,1.3319,1.3298,1.3284,1.3282,1.3273,1.3274,1.3269,1.3261,1.3257,1.3229,1.3233,1.3229,1.3224,1.3197,1.3197,1.3196,1.3201,1.3201,1.3201,0,0,0,0,0,0,1.3338,1.3323,1.332,1.3307,1.3297,1.3283,1.3277,1.3273,1.3263,1.3262,1.3252,1.3249,1.3237,1.3229,1.3233,1.3213,1.3213,1.3212,1.3218,1.3218,1.3218,1.3219,1.3229,0,0,0,0,0,1.3338,1.3329,1.3315,1.3305,1.33,1.329,1.3283,1.3278,1.3267,1.3263,1.3253,1.3242,1.3231,1.3224,1.3213,1.32,1.3197,1.3195,1.3195,1.3195,1.3194,1.3187,1.3187,1.3195,1.3195,1.3195,0,0,1.3337,1.3327,1.3322,1.3306,1.3297,1.3288,1.3286,1.3275,1.3268,1.3261,1.3248,1.3241,1.3228,1.3215,1.3209,1.3208,1.3191,1.3195,1.3195,1.3194,1.3187,1.3186,1.3185,1.3194,1.3194,1.3194,0,0,1.333,1.3322,1.3313,1.3305,1.3293,1.3286,1.3284,1.327,1.3265,1.3252,1.3247,1.3238,1.3219,1.3211,1.3204,1.3196,1.3192,1.3192,1.3191,1.3185,1.3184,1.3184,1.3181,1.318,1.3191,1.3191,1.3191,0,1.333,1.3316,1.3308,1.3298,1.3291,1.3286,1.3276,1.3269,1.3253,1.3249,1.3249,1.3226,1.3217,1.3202,1.3201,1.3195,1.3193,1.3194,1.3185,1.3184,1.3184,1.3181,1.318,1.3192,1.3192,1.3192,1.3192,0,1.3316,1.3307,1.33,1.3287,1.3279,1.327,1.3261,1.3254,1.325,1.3243,1.3231,1.322,1.3207,1.3203,1.3199,1.3188,1.3189,1.3187,1.3187,1.3183,1.318,1.3179,1.3192,1.3192,1.3192,1.3192,0,0,1.3311,1.3294,1.3292,1.3286,1.3273,1.3265,1.3256,1.3244,1.3239,1.3229,1.322,1.3205,1.3204,1.3197,1.3191,1.3186,1.318,1.3185,1.3184,1.3184,1.3168,1.317,1.3169,1.3178,1.3177,1.3177,1.317,0,1.3302,1.3285,1.3279,1.3265,1.3256,1.3251,1.3242,1.3233,1.3227,1.3218,1.3211,1.3201,1.32,1.3196,1.319,1.3182,1.3177,1.3182,1.317,1.3169,1.3173,1.3167,1.3168,1.3161,1.3168,1.3168,1.3168,0,1.329,1.3281,1.3266,1.3255,1.3251,1.3243,1.3233,1.3224,1.3214,1.321,1.3203,1.3198,1.3188,1.3189,1.3175,1.3179,1.3174,1.3169,1.3169,1.3167,1.3168,1.3165,1.3159,1.3158,1.3166,1.3166,1.3167,0,1.3287,1.3271,1.3261,1.3256,1.3242,1.3238,1.3232,1.3222,1.3216,1.3206,1.3202,1.3192,1.3186,1.3178,1.317,1.3172,1.3157,1.3158,1.3154,1.3154,1.315,1.315,1.3143,1.3147,1.3147,1.3147,1.3147,0,1.3278,1.3269,1.326,1.3253,1.3243,1.3236,1.3227,1.322,1.3212,1.3204,1.3199,1.3192,1.3183,1.3174,1.3168,1.3158,1.3155,1.3152,1.315,1.3152,1.3153,1.3148,1.3148,1.3147,1.3147,1.3147,1.3147,0,1.3274,1.3267,1.3255,1.3244,1.3241,1.3234,1.3224,1.3218,1.3212,1.3202,1.32,1.319,1.318,1.3172,1.3159,1.3155,1.3144,1.3142,1.3148,1.3147,1.3143,1.3144,1.3132,1.3131,1.3136,1.3136,1.3136,0,1.3268,1.3261,1.325,1.3245,1.3239,1.323,1.3224,1.3218,1.3211,1.32,1.3195,1.3185,1.3177,1.3161,1.3153,1.3143,1.3141,1.3138,1.3139,1.3142,1.3141,1.3141,1.3141,1.3137,1.3137,1.3137,1.3137,0,1.3259,1.3256,1.3248,1.3239,1.3232,1.3224,1.3216,1.3212,1.3204,1.3197,1.3187,1.3181,1.3168,1.3158,1.3148,1.3141,1.3138,1.3137,1.3136,1.3137,1.314,1.3139,1.3147,1.3137,1.3137,1.3137,1.3137,1.3137,1.3254,1.3248,1.3239,1.323,1.3224,1.3217,1.3211,1.3205,1.3196,1.3186,1.3182,1.3172,1.3163,1.3149,1.3143,1.3135,1.3135,1.3133,1.3132,1.3132,1.3132,1.3142,1.3133,1.3133,1.3133,1.3133,1.3133,0,1.3245,1.3239,1.3231,1.3221,1.3214,1.3212,1.3204,1.3198,1.319,1.3182,1.3174,1.3163,1.3154,1.3145,1.3136,1.3131,1.3129,1.3129,1.3129,1.3128,1.3133,1.3135,1.3131,1.3131,1.3131,1.3131,1.3131,1.3131,1.3239,1.323,1.3226,1.3213,1.3208,1.3198,1.3193,1.3187,1.3181,1.3169,1.3162,1.3157,1.3149,1.3139,1.3131,1.3128,1.3125,1.3125,1.3122,1.3127,1.3127,1.3128,1.313,1.3124,1.3124,1.3118,1.3118,1.3118]}]]